Lapse_Rate
7.3 7.5 7.6 7.9 8.0 8.2 8.2 7.9 7.3 7.3 7.6 7.6 8.0 8.6 8.6 8.5 8.4 8.4 8.4 8.3 8.0 7.7 7.6 7.6 7.7 7.8 7.4 7.1 6.6 6.4 6.3 6.1 6.1 6.1 6.2 6.0 6.0 6.1 6.4 6.3 6.3 6.5 6.0 5.8 6.1 6.5 6.6 6.8 7.0
7.2 7.3 7.4 7.7 7.7 7.9 7.9 7.8 7.3 7.1 7.3 7.8 8.1 8.7 8.8 8.5 8.6 8.5 8.4 8.2 7.8 7.7 7.7 7.7 7.8 7.8 7.5 7.1 6.8 6.4 6.3 6.1 6.0 6.1 6.1 6.0 5.9 6.0 6.1 6.2 6.1 6.2 6.3 6.5 6.5 6.3 6.7 6.9 6.9
7.1 7.2 7.4 7.6 7.7 7.7 7.7 7.4 7.5 7.1 7.2 7.9 8.2 8.4 8.5 8.5 8.5 8.4 8.5 8.1 7.8 7.7 7.9 7.7 7.8 7.7 7.5 7.2 6.9 6.6 6.4 6.1 6.0 5.9 6.0 5.9 5.8 5.8 5.9 6.2 6.1 6.2 6.3 6.7 6.8 6.6 6.7 6.7 7.0
7.2 7.2 7.4 7.6 7.6 7.5 7.4 7.2 7.1 6.8 7.4 7.5 7.8 8.0 8.5 8.6 8.5 8.5 8.4 8.2 8.0 7.7 7.7 7.7 7.5 7.5 7.3 7.2 7.0 6.8 6.5 6.2 5.9 5.7 5.8 5.9 5.6 5.7 5.8 5.8 6.0 6.1 6.5 6.7 6.8 6.6 6.6 6.7 7.0
7.2 7.1 7.4 7.5 7.4 7.2 7.0 6.7 6.8 7.0 7.2 7.6 7.7 7.9 8.2 8.3 8.4 8.3 8.2 8.1 7.9 7.8 7.8 7.9 7.5 7.4 7.3 7.2 7.1 7.0 6.8 6.3 6.0 5.8 5.7 5.6 5.6 5.5 5.5 5.6 5.7 5.9 6.2 6.6 6.6 6.4 6.5 6.7 6.8
7.2 7.3 7.5 7.4 7.2 7.1 6.8 6.7 7.0 6.6 7.1 7.9 7.6 7.9 7.7 7.6 7.6 7.8 7.7 7.7 7.7 7.6 7.5 7.6 7.5 7.3 7.2 7.2 7.1 7.0 6.9 6.5 6.2 5.9 5.6 5.5 5.4 5.4 5.2 5.1 4.9 5.7 6.0 6.5 6.5 6.5 6.5 6.6 6.6
7.4 7.4 7.5 7.5 7.3 7.0 6.7 6.9 6.8 6.9 7.0 7.6 7.7 8.0 7.1 7.4 7.1 7.3 7.0 7.5 7.1 7.1 7.0 7.2 7.3 7.1 7.1 7.0 7.1 7.0 7.0 6.7 6.2 6.0 5.7 5.5 5.4 5.4 5.4 5.1 4.7 5.4 5.7 6.1 6.2 6.2 6.3 6.2 6.4
7.3 7.3 7.4 7.3 7.0 6.5 6.4 6.6 6.6 6.8 7.0 7.5 7.8 7.8 7.8 7.6 7.1 6.9 6.4 7.1 7.1 6.9 6.7 6.6 6.8 6.7 6.6 6.8 6.9 7.0 7.0 6.7 6.4 6.0 5.8 5.6 5.5 5.4 5.5 4.9 4.8 5.2 5.5 5.8 5.9 5.9 5.9 6.1 6.3
7.2 7.0 6.9 6.6 6.5 6.5 6.6 6.8 6.8 6.8 6.6 7.0 7.6 7.6 7.7 7.7 7.3 7.0 6.5 6.9 7.2 6.8 6.5 6.4 6.5 6.4 6.4 6.4 6.6 6.8 6.9 6.7 6.5 6.1 5.9 5.7 5.5 5.3 5.5 5.1 4.9 5.3 5.5 5.6 5.7 5.8 5.7 5.9 6.1
7.4 7.0 6.7 6.4 6.3 6.3 6.3 6.5 6.7 6.9 6.7 6.8 7.3 7.4 7.7 7.7 7.6 7.5 7.1 6.9 7.0 7.2 7.1 6.7 6.8 6.7 6.4 6.2 6.4 6.5 6.6 6.4 6.4 6.3 5.9 5.8 5.5 5.3 5.3 5.0 4.8 5.2 5.3 5.5 5.5 5.5 5.7 5.7 5.9
7.2 6.9 6.7 6.5 6.5 6.5 6.5 6.5 6.6 6.8 6.8 6.8 7.0 7.4 7.5 7.7 7.8 7.6 7.3 7.3 7.4 7.1 6.9 6.9 6.9 6.9 6.5 6.2 6.0 6.3 6.4 6.5 6.2 6.2 6.1 5.6 5.4 5.4 5.2 4.9 4.7 5.1 5.2 5.4 5.4 5.5 5.7 5.6 5.6
6.8 6.6 6.5 6.5 6.6 6.6 6.6 6.7 6.5 6.6 6.9 6.9 6.9 7.0 7.4 7.5 7.8 7.8 7.7 7.5 7.6 7.6 7.2 7.1 7.0 6.9 6.9 6.6 6.3 6.0 6.1 6.4 6.4 6.0 5.9 5.8 5.6 5.6 5.2 5.1 4.9 5.1 5.2 5.6 5.5 5.6 5.6 5.5 5.4
6.8 6.3 6.2 6.4 6.4 6.7 6.7 6.8 6.6 6.5 6.6 6.8 6.9 6.8 6.8 7.4 7.6 7.8 7.8 7.9 7.8 7.7 7.6 7.5 7.3 7.2 7.0 6.7 6.5 6.3 6.0 6.1 6.3 6.2 5.9 5.8 5.6 5.9 5.2 5.2 5.1 5.0 5.5 5.5 5.5 5.4 5.5 5.3 5.3
6.3 6.4 6.2 6.1 6.1 6.0 6.2 6.4 6.6 6.3 6.5 6.4 6.5 6.6 6.5 6.7 7.2 7.8 7.9 7.9 7.9 7.8 7.7 7.7 7.6 7.4 7.3 7.1 6.9 6.7 6.3 6.0 6.2 6.2 6.1 5.7 5.8 5.7 5.6 5.4 5.1 5.3 5.3 5.5 5.3 5.1 5.2 5.1 5.2
6.6 6.3 6.3 6.2 5.9 6.0 6.0 6.2 6.2 6.5 6.3 6.3 6.6 6.4 6.4 6.5 6.9 7.3 7.9 8.1 8.1 8.0 7.9 7.9 7.8 7.7 7.7 7.5 7.0 6.9 6.7 6.2 5.9 6.0 6.2 5.9 5.8 5.6 5.9 5.4 5.2 5.0 5.1 5.2 5.3 5.0 5.1 4.9 5.0
6.6 6.4 6.2 6.0 5.9 5.8 5.6 5.9 6.1 6.2 6.1 5.9 6.2 6.4 6.3 6.3 6.5 6.8 7.3 7.7 8.2 8.3 8.0 7.7 8.0 7.9 7.8 7.7 7.4 7.5 7.2 6.6 6.1 5.9 5.7 6.1 5.7 5.7 5.8 5.4 5.2 5.2 5.1 5.3 5.3 5.0 5.1 4.8 4.6
6.4 5.3 5.3 5.5 5.1 5.4 5.6 5.6 5.8 5.9 6.1 6.2 6.1 6.1 6.3 6.3 6.4 6.6 6.8 7.0 7.6 8.1 8.3 7.7 7.8 7.9 7.9 7.7 7.5 7.5 7.8 6.9 6.7 6.2 5.9 5.9 6.0 5.7 5.7 5.2 5.1 5.1 5.0 5.0 5.1 5.1 5.0 5.4 4.7
4.4 4.4 4.7 5.0 5.2 5.5 5.3 5.2 5.1 5.3 5.5 5.6 5.8 5.9 6.1 6.3 6.3 6.4 6.6 6.9 7.1 7.4 7.8 8.0 7.6 7.9 7.7 7.6 7.4 7.5 7.7 7.2 6.9 6.6 6.2 5.9 5.8 5.9 5.3 5.6 5.1 5.2 5.2 4.9 4.9 5.0 4.9 4.8 4.9
4.5 4.7 5.0 4.8 4.4 3.9 4.1 3.9 4.0 4.1 4.2 4.7 5.1 5.5 5.6 6.0 6.3 6.4 6.5 6.7 7.1 7.2 7.3 7.7 7.5 7.6 7.8 7.6 7.4 7.3 7.3 7.6 7.1 6.7 6.6 6.0 5.9 6.0 5.8 5.5 5.1 5.0 5.0 5.0 4.9 4.9 5.0 4.8 4.7
5.1 5.1 4.9 4.8 5.0 4.8 4.7 4.5 3.8 3.6 3.6 3.9 4.5 5.0 5.5 5.8 6.2 6.4 6.3 6.4 6.8 7.3 7.3 7.3 7.5 7.4 7.5 7.5 7.3 7.3 7.1 7.4 7.4 6.8 6.5 6.3 6.1 5.8 5.6 5.9 5.2 5.3 5.1 5.2 4.9 4.9 4.9 4.8 4.8
4.5 4.4 4.6 4.9 5.3 6.7 6.3 5.6 4.9 4.5 4.2 3.7 3.7 4.2 4.6 5.4 6.0 6.4 6.6 6.5 6.6 7.0 7.4 7.3 7.5 7.2 7.2 7.4 7.3 7.2 7.1 7.0 6.9 6.7 6.6 6.9 6.3 6.0 5.8 5.8 5.3 5.0 5.0 5.0 5.1 4.9 4.8 5.0 4.9
4.9 6.1 6.6 6.4 6.2 7.2 7.2 7.8 6.1 5.7 5.7 5.3 4.5 4.3 4.7 5.0 5.3 5.7 6.1 6.3 6.4 6.7 7.4 7.4 7.2 7.4 7.0 7.2 7.3 7.3 6.9 6.9 6.6 6.7 6.7 6.7 6.4 6.2 6.0 5.9 5.5 5.2 5.1 5.4 5.1 4.8 4.9 5.1 5.0
5.8 7.5 8.1 8.1 7.3 6.9 7.4 7.3 6.6 6.6 6.5 6.9 6.5 5.5 4.9 4.8 4.9 5.3 5.8 6.1 6.4 6.5 6.9 7.5 7.4 7.3 7.1 6.8 7.2 7.3 6.5 6.1 6.5 6.7 7.0 6.6 6.5 6.3 5.7 5.9 5.6 5.3 5.3 5.9 5.0 4.8 4.9 5.1 5.0
6.6 8.0 8.4 8.1 7.4 7.8 7.0 7.6 6.7 6.7 6.4 6.0 6.0 6.0 6.0 5.9 5.6 5.2 4.9 5.2 5.4 5.8 6.4 7.0 7.5 7.3 7.0 6.8 7.0 7.1 7.1 6.4 6.3 6.4 6.8 6.6 6.7 6.4 6.1 5.6 4.9 5.5 5.3 5.6 5.1 4.8 4.7 4.7 4.7
7.2 7.6 8.2 9.0 8.4 8.0 6.9 7.0 6.0 6.6 6.6 6.1 5.9 5.7 6.0 5.9 6.3 5.9 5.6 5.2 5.3 5.2 5.6 6.4 7.2 7.4 7.0 6.7 6.6 7.0 7.2 6.4 6.4 6.1 6.6 6.3 6.5 6.5 6.4 5.9 5.9 5.8 5.1 5.6 5.2 5.2 5.0 4.8 4.2
7.7 7.4 7.8 8.0 8.4 8.1 6.9 6.7 6.4 6.2 6.1 6.0 5.9 5.8 6.1 6.2 6.2 6.3 6.0 5.1 4.9 5.0 5.2 5.7 6.5 7.2 7.3 6.7 6.4 6.8 7.1 6.9 6.4 6.3 6.0 6.3 6.3 6.7 6.6 6.3 5.8 5.4 5.5 5.4 5.4 5.3 5.1 5.2 5.0
7.6 8.1 8.2 7.7 8.0 8.3 6.9 6.8 6.7 6.4 6.7 6.7 6.7 6.6 6.3 6.3 6.3 6.3 6.2 5.8 5.0 4.8 4.9 5.5 6.1 6.6 7.2 7.1 6.4 6.6 7.1 7.5 6.6 6.2 6.3 6.1 6.5 6.8 6.6 6.6 6.3 6.1 6.1 5.6 5.5 5.2 5.3 5.4 4.9
7.3 8.3 8.1 8.1 8.2 8.3 7.1 6.7 6.7 6.4 6.4 6.4 6.5 6.4 6.3 6.4 6.5 6.5 6.5 6.2 5.5 4.8 4.7 4.9 5.5 6.4 6.8 7.1 6.8 6.5 7.0 7.3 7.2 6.3 6.3 6.4 6.2 6.6 6.2 6.2 6.1 5.9 5.7 5.2 5.6 5.2 5.4 5.4 5.0
6.9 7.6 8.3 7.9 8.1 8.5 8.1 7.3 6.4 6.2 6.1 6.2 6.2 6.1 6.0 6.0 6.1 6.3 6.6 6.4 6.2 5.3 4.9 4.8 5.0 5.7 6.4 6.8 7.1 6.7 6.6 7.3 7.7 6.6 6.2 6.1 6.0 6.1 6.0 6.1 5.9 5.4 5.9 5.9 5.2 5.1 5.2 5.6 5.2
7.0 7.8 8.2 7.9 8.3 7.9 7.6 7.6 7.3 6.9 6.4 6.1 6.1 6.0 6.0 5.8 5.7 5.8 6.2 6.4 6.2 6.3 5.3 5.0 4.9 4.9 5.7 6.3 6.7 6.7 6.7 7.1 7.7 7.1 6.5 6.5 6.3 6.2 6.6 5.7 5.8 5.5 5.9 5.6 5.8 6.0 5.8 5.6 5.4
Wind_Speed
5 3 1 2 2 1 2 3 1 10 8 11 16 8 7 7 5 2 6 3 1 16 18 20 16 17 17 18 18 19 20 20 21 21 21 20 20 19 16 17 21 22 24 25 26 27 28 29 28
2 0 2 2 1 2 3 1 9 8 13 14 12 4 6 2 4 2 5 3 7 12 13 14 11 12 15 16 17 18 19 19 20 22 21 21 20 19 17 20 22 24 25 26 26 27 28 27 26
1 3 1 3 2 1 3 1 8 10 14 10 9 3 4 4 6 2 4 9 11 12 12 12 10 10 11 14 15 16 18 19 20 21 22 21 21 20 20 20 24 24 25 25 27 27 28 27 28
1 2 3 1 2 1 1 7 9 12 8 10 10 1 2 4 7 7 8 12 15 12 13 13 13 12 10 11 12 13 15 18 19 22 23 23 22 21 21 21 23 25 25 25 27 28 26 27 26
3 2 2 3 2 1 3 6 8 11 11 11 11 10 3 6 8 3 5 8 11 12 13 14 10 10 9 9 10 11 13 16 19 21 23 24 23 24 24 22 23 24 26 25 27 26 26 25 24
2 1 2 1 1 4 2 8 9 12 11 11 8 8 7 16 17 16 11 5 8 8 7 8 10 8 8 8 8 11 12 15 19 23 23 24 25 25 21 19 22 21 26 26 26 25 25 25 24
3 2 1 3 1 2 2 12 12 7 12 12 16 6 4 25 24 16 15 13 13 10 4 3 5 6 5 7 8 10 12 14 18 22 23 24 25 25 22 17 20 22 25 27 25 25 24 24 24
3 2 2 2 2 3 8 10 5 12 11 5 16 11 8 24 24 17 11 17 15 11 7 6 4 2 5 7 10 11 11 13 14 16 18 23 23 21 16 14 20 25 24 26 25 26 24 24 23
1 2 2 2 1 4 11 4 6 7 9 19 12 15 16 19 21 21 18 18 16 15 15 8 7 6 6 7 8 12 11 12 13 10 20 26 21 22 20 12 21 26 25 25 25 25 24 23 22
3 2 1 2 2 9 15 7 5 8 15 10 19 22 22 23 23 22 22 18 17 19 17 15 11 7 9 7 9 9 11 12 12 12 21 18 19 19 21 12 20 26 26 24 25 25 26 24 20
2 3 1 6 6 4 8 21 11 2 13 14 18 22 23 24 22 21 20 18 17 16 12 16 13 20 9 8 8 8 9 9 8 10 18 17 17 16 18 13 17 22 25 23 23 24 22 19 18
2 6 9 7 10 3 6 8 17 20 8 13 15 16 19 23 22 21 21 20 21 20 18 18 17 11 15 9 5 7 7 9 8 8 17 16 11 12 13 11 13 18 21 20 19 18 17 17 17
7 6 12 12 16 20 20 18 12 19 15 15 15 19 20 20 21 19 19 18 20 20 20 18 16 13 10 11 6 5 5 8 11 12 15 17 12 8 12 8 12 15 16 17 15 16 17 14 16
5 16 15 14 13 13 11 12 3 17 16 17 19 20 20 21 22 20 22 21 21 21 21 20 19 15 16 13 8 5 6 9 11 12 13 14 14 12 11 10 11 12 14 16 15 14 12 12 13
3 8 12 18 17 6 2 8 13 15 14 16 18 19 20 21 21 22 21 21 21 18 21 20 19 19 14 13 10 5 7 9 7 10 16 15 17 16 14 9 8 14 15 15 13 13 14 10 11
9 6 8 10 18 10 9 2 12 14 14 17 18 18 19 22 22 22 21 21 20 20 21 20 17 18 17 13 11 5 8 9 8 12 13 14 16 18 14 9 10 14 15 14 9 8 8 7 7
12 6 11 9 13 10 9 3 11 13 15 16 17 18 18 21 23 23 23 21 21 20 20 20 20 20 20 15 11 9 9 7 10 13 15 15 15 19 15 10 14 19 14 9 8 8 10 8 7
13 8 10 13 11 9 7 8 10 14 16 17 17 17 18 20 23 23 24 22 21 20 20 20 17 20 19 10 11 9 6 8 12 9 12 17 16 17 11 14 14 19 11 10 8 11 10 10 9
8 12 17 10 4 11 6 7 11 14 17 18 18 18 19 20 18 20 21 21 21 21 22 22 21 21 15 12 11 6 5 6 6 8 15 15 18 18 17 6 11 13 11 13 11 9 13 7 9
12 13 11 8 7 11 4 1 10 15 17 17 18 19 20 20 21 22 22 22 21 21 21 21 21 20 15 11 10 5 8 9 8 6 9 16 18 20 13 11 11 15 11 14 15 7 9 6 11
12 7 13 15 15 11 10 2 9 15 16 16 17 18 19 20 21 21 22 22 21 22 22 20 20 19 16 17 11 10 8 5 5 7 9 11 13 13 17 15 12 13 12 12 15 13 18 12 9
8 16 18 18 8 3 8 3 15 15 14 18 19 19 19 21 20 20 21 22 22 21 19 20 20 19 17 17 14 15 7 9 5 8 9 7 13 14 18 16 13 14 11 14 10 16 8 13 12
9 22 19 13 7 4 3 3 7 11 15 17 18 20 19 19 19 20 20 20 21 21 20 19 20 19 19 16 14 10 12 8 9 11 8 11 11 14 16 15 15 15 11 14 15 14 10 9 9
14 20 5 6 4 6 14 3 10 13 15 18 18 17 18 19 19 19 19 20 19 20 21 20 21 20 20 19 15 14 15 13 11 10 7 7 8 7 12 14 16 14 13 13 13 15 12 10 10
22 16 6 6 3 4 8 9 4 12 16 14 17 18 17 17 19 20 22 20 21 22 22 20 22 20 19 18 18 15 14 13 13 12 8 10 7 7 9 13 13 11 13 14 13 16 16 17 14
12 6 4 6 5 3 8 4 3 9 11 14 15 17 18 18 18 20 20 19 20 21 21 22 22 21 19 18 19 14 15 9 8 10 9 8 9 11 12 12 14 17 16 14 15 12 12 14 14
9 11 9 5 3 1 3 3 7 13 14 15 16 17 17 18 18 19 20 19 19 20 20 21 21 21 20 17 15 15 13 14 12 14 11 9 11 9 15 13 14 15 14 14 14 12 15 15 14
4 8 8 5 6 4 3 1 5 13 16 17 17 17 18 17 18 19 18 19 19 19 18 19 19 20 19 19 15 13 15 14 13 11 12 13 13 14 10 11 13 14 17 17 16 14 14 15 12
6 5 4 2 3 4 4 0 4 8 13 15 15 16 18 17 17 17 17 19 19 18 18 18 18 19 19 18 17 15 14 15 13 12 12 13 13 13 11 12 14 12 13 16 15 15 16 17 15
3 5 4 3 7 3 2 2 4 8 11 11 14 15 16 16 15 16 16 18 19 19 18 18 18 17 17 17 18 17 15 14 14 12 13 13 11 13 13 10 12 14 15 13 17 18 14 15 17
Wind_Direction
346 6 17 43 201 57 100 119 270 351 345 330 303 261 225 308 263 334 4 137 173 157 165 167 156 150 144 140 144 149 152 154 153 152 150 147 146 145 151 145 136 133 134 132 127 128 127 125 120
333 112 61 96 140 196 114 42 355 334 319 309 317 306 212 303 250 32 97 51 141 151 160 164 150 146 143 139 141 151 156 159 157 155 153 151 151 150 147 143 142 138 135 132 129 129 127 123 117
156 25 65 79 100 187 101 342 321 321 316 334 342 316 349 355 351 18 60 123 135 146 156 158 144 144 146 140 143 144 158 164 163 154 156 154 152 150 144 145 145 137 136 133 132 132 128 121 117
22 52 79 88 140 139 292 329 341 348 340 356 343 18 36 29 330 335 133 140 145 148 160 151 152 155 150 147 146 148 156 163 167 158 161 158 157 154 144 144 148 139 137 135 135 132 128 123 120
42 67 85 86 70 301 256 336 342 340 354 346 353 346 38 27 1 37 116 137 146 148 158 158 154 161 156 152 154 157 163 168 173 164 166 164 161 156 147 145 145 144 136 134 134 132 128 123 121
71 71 101 125 45 295 306 346 332 356 355 356 8 340 59 5 3 6 5 60 121 130 141 151 155 162 171 167 176 172 176 180 179 176 170 168 163 140 144 163 152 140 132 133 133 133 129 125 121
96 75 118 109 2 299 42 334 17 357 16 18 324 20 19 7 351 17 26 22 38 28 26 144 176 186 177 197 194 193 187 193 194 189 179 172 149 147 160 167 158 135 135 133 137 135 130 128 123
90 85 104 95 51 53 12 337 63 33 44 11 14 17 358 331 341 20 15 22 32 26 17 360 335 253 224 219 220 208 203 202 212 199 177 148 138 141 151 177 167 141 141 135 141 136 134 130 126
125 65 69 58 86 18 4 358 25 57 61 56 56 30 350 344 2 20 13 9 13 8 350 346 322 291 245 231 238 212 213 216 219 178 135 138 149 150 167 205 181 145 144 140 143 136 134 127 125
60 68 57 24 358 83 54 50 354 43 33 13 5 9 6 8 17 17 15 5 0 358 346 355 340 312 289 248 233 226 220 223 221 204 159 149 157 164 169 216 186 147 143 144 145 138 134 140 142
81 68 56 47 357 134 109 56 28 31 41 8 352 355 3 12 17 16 10 2 354 346 347 346 345 336 288 260 249 232 220 218 215 187 162 161 164 162 166 198 175 153 150 155 151 143 155 154 153
91 60 21 2 7 90 78 83 67 50 39 5 359 2 9 14 14 12 6 358 354 350 349 344 339 333 323 271 241 237 232 207 200 184 167 161 163 163 179 167 166 162 165 160 158 166 161 160 157
62 25 50 46 77 71 73 64 81 37 14 7 6 10 13 14 11 8 6 2 355 353 349 346 338 342 333 296 247 213 223 218 196 182 184 167 163 159 181 160 157 165 162 161 161 165 161 157 156
2 85 55 27 57 72 73 44 30 5 4 11 8 8 9 10 7 4 5 1 359 350 351 345 344 344 329 336 254 219 206 208 202 181 182 178 165 161 166 160 165 168 164 164 165 166 158 153 157
35 86 48 15 2 43 36 38 26 360 4 16 12 6 2 4 5 6 1 358 355 353 347 350 347 347 342 323 291 220 212 196 196 193 181 181 171 169 164 157 162 167 166 159 154 145 149 146 162
17 49 4 23 15 357 342 4 20 11 12 14 12 8 1 359 359 359 359 357 353 352 353 348 350 349 343 335 327 238 208 205 196 191 191 183 180 170 172 164 176 161 154 149 151 154 148 151 161
36 341 350 332 27 350 4 126 23 19 20 17 11 8 3 356 357 355 355 355 353 353 352 353 352 352 347 337 328 293 205 208 200 199 189 194 189 179 184 179 176 173 162 168 165 170 154 157 163
327 329 319 313 347 360 71 88 42 30 27 18 10 10 8 0 357 350 351 352 354 354 354 356 355 354 351 342 340 330 220 217 205 201 191 197 198 190 185 178 175 175 176 168 173 172 158 165 154
334 310 310 323 332 5 70 68 44 33 29 20 12 6 7 4 354 355 354 354 355 357 357 357 357 355 354 355 347 340 329 259 201 207 199 190 200 190 196 184 173 184 189 186 192 168 154 161 151
339 323 324 310 319 324 208 301 52 40 32 23 11 4 1 1 2 359 359 358 358 357 357 355 355 355 354 348 333 312 301 290 213 194 207 200 206 191 183 172 172 182 194 190 198 189 169 159 167
339 304 308 287 316 275 276 88 27 22 24 19 18 10 5 3 2 4 1 3 357 359 357 353 354 353 353 347 339 330 313 315 204 191 205 204 191 184 177 169 169 183 181 188 195 197 185 162 176
324 330 306 299 303 290 33 162 34 15 16 14 7 5 5 4 3 7 4 2 3 358 356 356 355 353 354 351 346 339 331 328 322 254 206 195 192 189 179 178 172 173 192 194 192 204 190 156 170
314 319 308 302 264 278 14 185 31 27 10 9 2 1 2 1 2 5 5 3 1 2 1 357 358 356 354 352 348 339 328 325 319 303 191 196 196 191 187 186 178 183 189 199 197 201 163 168 165
326 331 34 100 129 37 1 167 29 356 7 0 358 2 1 2 2 4 7 5 4 2 2 359 360 357 354 351 349 341 333 335 328 322 296 200 203 192 200 190 185 185 191 191 192 199 199 182 187
358 1 350 7 52 53 24 65 30 354 1 349 350 355 357 356 2 4 5 3 3 2 1 359 359 356 352 349 347 341 338 334 332 324 319 312 196 196 197 194 186 189 189 188 187 193 199 192 197
345 360 7 315 12 45 31 93 38 0 349 350 355 354 357 358 357 358 357 1 -0 359 358 358 358 356 352 349 343 341 341 338 327 331 318 299 290 210 189 196 195 195 203 188 189 194 196 196 201
340 9 306 268 176 126 94 16 256 355 356 355 356 356 357 358 0 356 355 355 355 355 355 354 354 356 355 348 342 342 342 338 334 335 327 331 305 284 209 189 201 203 203 199 189 195 198 198 201
10 328 354 7 351 339 94 21 336 343 349 350 350 351 353 353 357 358 357 357 353 349 350 350 353 354 353 354 345 340 340 340 337 337 341 334 326 319 236 191 199 204 201 199 196 199 200 190 198
11 8 349 260 5 333 313 213 237 326 339 344 343 348 350 350 351 352 353 354 352 351 351 350 350 351 354 352 351 342 345 342 342 342 343 340 319 318 318 214 203 208 207 198 201 197 197 190 192
105 0 347 339 346 359 334 277 286 325 337 340 335 337 340 344 344 348 347 349 350 351 352 350 348 349 352 348 350 351 347 348 351 343 337 328 331 319 324 298 221 218 210 205 201 203 203 198 203